STARLINK-31041, 58537

Orbit data source: Space-Track

STARLINK-31041, 58537 is a payload satellite owned by SpaceX/Seattle (US) in LEO that was launched on Fri, 08 Dec 2023 UTC via an FALCON 9 launch vehicle from the Air Force Western Test Range (AFWTR). Payload-class satellites include a variety of spacecraft equipped with specific instruments for various scientific and technological missions. These include communications satellites like Starlink; space stations such as the ISS; scientific satellites like the Hubble; Earth observation satellites from companies like Planet Labs, Umbra, and HawkEye 360; GPS; miniature CubeSats for education and research; and military/defense satellites.

Loading next visibility...
Identifier
58537, 2023-192G
Orbit
LEO
Country
Flag of USUS
Related business
Manufacturer
SpaceX/Seattle
Mission
Operational Commercial Communications
Bus & Motor
STARLINK V2M, Unknown motor
Mass
730 kg wet, ~700 kg dry
Launch date (UTC)
2023-12-08 (3 years ago)
Launch vehicle
FALCON 9
Launch site
Air Force Western Test Range (AFWTR)
Object type
Payload
Rocket body
Debris
Shape & HBR
Box + 2 Pan, 17.7 m
Radar Cross Section
33.884 m², Large (>1 m²)

Expand to show TLE details & history
Last TLE update: 3 days ago

TLE from 3 days ago
0 STARLINK-31041
1 58537U 23192G   26170.66330190 -.00000074  00000-0  89453-5 0  9995
2 58537  53.1606 307.9787 0001042  90.9008 269.2114 15.34392458141617
Epoch: 2026-06-19T15:55Z
TLE epoch observation values (Epoch: 2026-06-19T15:55:09.284Z)
Latitude
-0°
Longitude
161.30097°
Altitude
463.637 km
Speed
7.636 km/s
True Right ascension
20h 31m 54s
True Declination
0° 00' 00"
Sunlit
Object was in full shadow at epoch
Visualization orbit readout
Latitude
Unknown
Longitude
Unknown
Altitude
Unknown
Speed
Unknown
Apparent Right ascension
Unknown
Apparent Declination
Unknown
Sunlit
N/A
Visualization observer readout
Local Sidereal Time
21:30:52
Azimuth
Unknown
Elevation
Unknown
Doppler factor
Unknown
Orbital elements
Apogee altitude
463.695 km
Perigee altitude
462.27 km
Semi-major axis
6,841.119 km
Eccentricity
0.0001
Inclination
53.1606°
RAAN
307.9787°
Arg. of periapsis
90.9008°
True anomaly
269.19946°
Mean anomaly
269.2114°
Eccentric anomaly
269.20543°
Mean motion
3.83577 °/min
Orbital period
93.85 mins
BSTAR
0.0000089453
Loading maneuver chart data...
Computing Atmospheric mass density...
Loading historical data...
Loading historical data...
Loading historical data...
Loading historical data...
Loading historical data...
Loading historical data...
Loading historical data...

Documentation

Showing up to 5 results
|